Date,TemperatureHighF,TemperatureAvgF,TemperatureLowF,DewpointHighF,DewpointAvgF,DewpointLowF,HumidityHigh,HumidityAvg,HumidityLow,PressureMaxIn,PressureMinIn,WindSpeedMaxMPH,WindSpeedAvgMPH,GustSpeedMaxMPH,PrecipitationSumIn
2013-1-1,18.2,7.9,-1.8,2.8,-2.3,-8.9,81,63,45,30.44,30.26,5,1,5,0.00
2013-1-2,30.5,21.0,9.1,24.0,12.9,1.2,81,71,57,30.25,30.11,12,3,12,0.00
2013-1-3,30.8,19.8,11.8,24.2,12.0,4.8,78,71,63,30.46,30.22,20,5,20,0.00
2013-1-4,36.2,25.0,13.4,22.1,16.0,7.2,79,69,51,30.40,30.22,14,2,14,0.00
2013-1-5,39.2,29.1,21.2,30.4,21.4,14.7,82,73,64,30.22,29.98,18,5,18,0.00
2013-1-6,29.1,21.6,14.1,17.1,12.8,6.2,73,69,59,30.39,30.16,22,5,22,0.00
2013-1-7,45.1,33.7,23.9,27.0,22.0,15.9,80,63,47,30.26,30.04,20,4,20,0.00
2013-1-8,47.1,35.7,26.6,31.3,26.4,20.9,88,70,51,30.12,29.88,20,4,20,0.00
2013-1-9,43.8,37.1,29.1,31.0,27.4,23.1,81,68,56,30.48,30.12,13,2,13,0.00
2013-1-10,42.7,36.4,31.5,33.2,27.3,21.0,85,70,42,30.43,29.76,14,4,14,0.00
2013-1-11,53.7,45.3,36.5,44.3,39.1,32.3,87,79,62,29.77,29.48,24,7,24,0.00
2013-1-12,52.0,23.7,13.8,39.3,12.2,1.8,78,61,55,30.19,29.55,22,8,22,0.00
2013-1-13,19.2,13.0,7.8,6.3,2.0,-2.0,68,61,55,30.42,30.13,20,6,20,0.00
2013-1-14,30.2,18.1,6.8,9.7,5.0,0.0,75,58,35,30.56,30.42,10,1,10,0.00
2013-1-15,35.9,24.0,14.0,12.1,8.6,6.1,74,54,33,30.46,30.11,14,2,14,0.00
2013-1-16,48.5,34.5,22.7,31.7,21.7,8.1,76,59,49,30.26,29.93,15,6,15,0.00
2013-1-17,36.2,26.1,16.7,23.0,13.9,7.0,77,61,38,30.54,30.25,4,0,4,0.00
2013-1-18,55.6,43.1,23.4,29.5,26.5,15.7,75,53,35,30.41,29.89,0,0,0,0.00
2013-1-19,51.6,40.3,17.9,31.0,24.6,0.7,67,54,32,30.34,29.84,28,6,28,0.00
2013-1-20,17.9,12.5,6.9,5.9,2.1,-1.9,71,63,49,30.50,30.33,14,3,14,0.00
2013-1-21,9.0,4.1,-3.2,-1.5,-7.3,-15.6,71,58,52,30.57,30.45,20,6,20,0.00
2013-1-22,18.5,10.9,2.8,0.7,-3.7,-7.2,63,52,40,30.55,30.38,10,1,10,0.00
2013-1-23,27.5,17.0,5.0,14.6,4.3,-7.0,67,57,47,30.63,30.26,18,7,18,0.00
2013-1-24,20.5,11.4,3.2,2.0,-6.3,-10.5,58,45,33,30.72,30.30,18,6,18,0.00
2013-1-25,37.7,24.9,13.4,20.8,10.9,-2.0,71,55,44,30.38,30.16,20,6,20,0.00
2013-1-26,36.7,22.9,8.6,12.4,4.3,-1.6,64,46,29,30.44,30.20,17,6,17,0.00
2013-1-27,38.3,34.7,32.1,34.2,26.7,11.8,86,74,42,30.19,29.78,17,5,17,0.01
2013-1-28,49.9,38.5,34.7,46.2,34.7,30.9,87,86,85,29.95,29.59,12,3,12,0.00
2013-1-29,58.3,38.6,31.6,54.5,33.8,26.3,88,83,78,29.72,29.52,20,6,20,0.00
2013-1-30,31.5,22.7,14.2,26.3,16.6,5.7,84,77,67,29.95,29.55,28,12,28,0.00
2013-1-31,14.0,6.0,-0.6,5.8,-3.9,-10.8,71,63,57,30.50,29.96,23,10,23,0.00